Time,TemperatureF,DewpointF,PressureIn,WindDirection,WindDirectionDegrees,WindSpeedMPH,WindSpeedGustMPH,Humidity,HourlyPrecipIn,Conditions,Clouds,dailyrainin,SoftwareType,DateUTC
2013-02-25 00:00:00,60.0,60.0,29.81,ENE,70,20.0,23.0,100,-99.99,,,-99.99,,2013-02-25 06:00:00,
2013-02-25 00:21:00,60.0,60.0,29.81,ENE,70,20.0,23.0,100,-99.99,,,-99.99,,2013-02-25 06:21:00,
2013-02-25 00:31:00,60.0,60.0,29.81,ENE,70,20.0,23.0,100,-99.99,,,-99.99,,2013-02-25 06:31:00,
2013-02-25 00:41:00,60.0,60.0,29.81,ENE,70,20.0,23.0,100,-99.99,,,-99.99,,2013-02-25 06:41:00,
2013-02-25 00:51:00,60.0,60.0,29.81,ENE,70,20.0,23.0,100,-99.99,,,-99.99,,2013-02-25 06:51:00,
2013-02-25 01:00:00,60.0,60.0,29.79,ENE,70,15.0,16.0,99,-99.99,,,-99.99,,2013-02-25 07:00:00,
2013-02-25 01:21:00,60.0,60.0,29.79,ENE,70,15.0,16.0,99,-99.99,,,-99.99,,2013-02-25 07:21:00,
2013-02-25 01:31:00,60.0,60.0,29.79,ENE,70,15.0,16.0,99,-99.99,,,-99.99,,2013-02-25 07:31:00,
2013-02-25 01:41:00,60.0,60.0,29.79,ENE,70,15.0,16.0,99,-99.99,,,-99.99,,2013-02-25 07:41:00,
2013-02-25 01:51:00,60.0,60.0,29.79,ENE,70,15.0,16.0,99,-99.99,,,-99.99,,2013-02-25 07:51:00,
2013-02-25 02:00:00,59.0,59.0,29.75,ENE,60,15.0,16.0,100,-99.99,,,-99.99,,2013-02-25 08:00:00,
2013-02-25 02:21:00,59.0,59.0,29.75,ENE,60,15.0,16.0,100,-99.99,,,-99.99,,2013-02-25 08:21:00,
2013-02-25 02:31:00,59.0,59.0,29.75,ENE,60,15.0,16.0,100,-99.99,,,-99.99,,2013-02-25 08:31:00,
2013-02-25 02:41:00,59.0,59.0,29.75,ENE,60,15.0,16.0,100,-99.99,,,-99.99,,2013-02-25 08:41:00,
2013-02-25 02:51:00,59.0,59.0,29.75,ENE,60,15.0,16.0,100,-99.99,,,-99.99,,2013-02-25 08:51:00,
2013-02-25 03:00:00,61.0,61.0,29.73,East,100,21.0,23.0,100,-99.99,,,-99.99,,2013-02-25 09:00:00,
2013-02-25 03:21:00,61.0,61.0,29.73,East,100,21.0,23.0,100,-99.99,,,-99.99,,2013-02-25 09:21:00,
2013-02-25 03:31:00,61.0,61.0,29.73,East,100,21.0,23.0,100,-99.99,,,-99.99,,2013-02-25 09:31:00,
2013-02-25 03:41:00,61.0,61.0,29.73,East,100,21.0,23.0,100,-99.99,,,-99.99,,2013-02-25 09:41:00,
2013-02-25 03:51:00,61.0,61.0,29.73,East,100,21.0,23.0,100,-99.99,,,-99.99,,2013-02-25 09:51:00,
2013-02-25 04:00:00,60.0,60.0,29.75,ENE,60,13.0,14.0,100,-99.99,,,-99.99,,2013-02-25 10:00:00,
2013-02-25 04:21:00,60.0,60.0,29.75,ENE,60,13.0,14.0,100,-99.99,,,-99.99,,2013-02-25 10:21:00,
2013-02-25 04:31:00,60.0,60.0,29.75,ENE,60,13.0,14.0,100,-99.99,,,-99.99,,2013-02-25 10:31:00,
2013-02-25 04:41:00,60.0,60.0,29.75,ENE,60,13.0,14.0,100,-99.99,,,-99.99,,2013-02-25 10:41:00,
2013-02-25 04:52:00,60.0,60.0,29.75,ENE,60,13.0,14.0,100,-99.99,,,-99.99,,2013-02-25 10:52:00,
2013-02-25 05:00:00,59.0,59.0,29.73,NNE,30,21.0,22.0,100,-99.99,,,-99.99,,2013-02-25 11:00:00,
2013-02-25 05:21:00,59.0,59.0,29.73,NNE,30,21.0,22.0,100,-99.99,,,-99.99,,2013-02-25 11:21:00,
2013-02-25 05:31:00,59.0,59.0,29.73,NNE,30,21.0,22.0,100,-99.99,,,-99.99,,2013-02-25 11:31:00,
2013-02-25 05:41:00,59.0,59.0,29.73,NNE,30,21.0,22.0,100,-99.99,,,-99.99,,2013-02-25 11:41:00,
2013-02-25 05:52:00,59.0,59.0,29.73,NNE,30,21.0,22.0,100,-99.99,,,-99.99,,2013-02-25 11:52:00,
2013-02-25 06:00:00,59.0,59.0,29.74,ENE,60,15.0,18.0,100,-99.99,,,-99.99,,2013-02-25 12:00:00,
2013-02-25 06:21:00,59.0,59.0,29.74,ENE,60,15.0,18.0,100,-99.99,,,-99.99,,2013-02-25 12:21:00,
2013-02-25 06:31:00,59.0,59.0,29.74,ENE,60,15.0,18.0,100,-99.99,,,-99.99,,2013-02-25 12:31:00,
2013-02-25 06:41:00,59.0,59.0,29.74,ENE,60,15.0,18.0,100,-99.99,,,-99.99,,2013-02-25 12:41:00,
2013-02-25 06:52:00,59.0,59.0,29.74,ENE,60,15.0,18.0,100,-99.99,,,-99.99,,2013-02-25 12:52:00,
2013-02-25 07:00:00,60.0,60.0,29.73,ENE,60,24.0,26.0,100,-99.99,,,-99.99,,2013-02-25 13:00:00,
2013-02-25 07:21:00,60.0,60.0,29.73,ENE,60,24.0,26.0,100,-99.99,,,-99.99,,2013-02-25 13:21:00,
2013-02-25 07:31:00,60.0,60.0,29.73,ENE,60,24.0,26.0,100,-99.99,,,-99.99,,2013-02-25 13:31:00,
2013-02-25 07:41:00,60.0,60.0,29.73,ENE,60,24.0,26.0,100,-99.99,,,-99.99,,2013-02-25 13:41:00,
2013-02-25 07:51:00,60.0,60.0,29.73,ENE,60,24.0,26.0,100,-99.99,,,-99.99,,2013-02-25 13:51:00,
2013-02-25 08:00:00,61.0,60.0,29.77,ENE,70,20.0,22.0,96,-99.99,,,-99.99,,2013-02-25 14:00:00,
2013-02-25 08:21:00,61.0,60.0,29.77,ENE,70,20.0,22.0,96,-99.99,,,-99.99,,2013-02-25 14:21:00,
2013-02-25 08:31:00,61.0,60.0,29.77,ENE,70,20.0,22.0,96,-99.99,,,-99.99,,2013-02-25 14:31:00,
2013-02-25 08:41:00,61.0,60.0,29.77,ENE,70,20.0,22.0,96,-99.99,,,-99.99,,2013-02-25 14:41:00,
2013-02-25 08:51:00,61.0,60.0,29.77,ENE,70,20.0,22.0,96,-99.99,,,-99.99,,2013-02-25 14:51:00,
2013-02-25 09:00:00,60.0,59.0,29.78,ENE,60,16.0,18.0,96,-99.99,,,-99.99,,2013-02-25 15:00:00,
2013-02-25 09:21:00,60.0,59.0,29.78,ENE,60,16.0,18.0,96,-99.99,,,-99.99,,2013-02-25 15:21:00,
2013-02-25 09:32:00,60.0,59.0,29.78,ENE,60,16.0,18.0,96,-99.99,,,-99.99,,2013-02-25 15:32:00,
2013-02-25 09:41:00,60.0,59.0,29.78,ENE,60,16.0,18.0,96,-99.99,,,-99.99,,2013-02-25 15:41:00,
2013-02-25 09:51:00,60.0,59.0,29.78,ENE,60,16.0,18.0,96,-99.99,,,-99.99,,2013-02-25 15:51:00,
2013-02-25 10:00:00,60.0,59.0,29.77,East,80,18.0,22.0,96,-99.99,,,-99.99,,2013-02-25 16:00:00,
2013-02-25 10:21:00,60.0,59.0,29.77,East,80,18.0,22.0,96,-99.99,,,-99.99,,2013-02-25 16:21:00,
2013-02-25 10:31:00,60.0,59.0,29.77,East,80,18.0,22.0,96,-99.99,,,-99.99,,2013-02-25 16:31:00,
2013-02-25 10:41:00,60.0,59.0,29.77,East,80,18.0,22.0,96,-99.99,,,-99.99,,2013-02-25 16:41:00,
2013-02-25 10:51:00,60.0,59.0,29.77,East,80,18.0,22.0,96,-99.99,,,-99.99,,2013-02-25 16:51:00,
2013-02-25 11:00:00,62.0,59.0,29.76,East,90,18.0,21.0,89,-99.99,,,-99.99,,2013-02-25 17:00:00,
2013-02-25 11:21:00,62.0,59.0,29.76,East,90,18.0,21.0,89,-99.99,,,-99.99,,2013-02-25 17:21:00,
2013-02-25 11:31:00,62.0,59.0,29.76,East,90,18.0,21.0,89,-99.99,,,-99.99,,2013-02-25 17:31:00,
2013-02-25 11:41:00,62.0,59.0,29.76,East,90,18.0,21.0,89,-99.99,,,-99.99,,2013-02-25 17:41:00,
2013-02-25 11:51:00,62.0,59.0,29.76,East,90,18.0,21.0,89,-99.99,,,-99.99,,2013-02-25 17:51:00,
2013-02-25 12:00:00,62.0,59.0,29.72,East,100,23.0,28.0,92,-99.99,,,-99.99,,2013-02-25 18:00:00,
2013-02-25 12:21:00,62.0,59.0,29.72,East,100,23.0,28.0,92,-99.99,,,-99.99,,2013-02-25 18:21:00,
2013-02-25 12:32:00,62.0,59.0,29.72,East,100,23.0,28.0,92,-99.99,,,-99.99,,2013-02-25 18:32:00,
2013-02-25 12:41:00,62.0,59.0,29.72,East,100,23.0,28.0,92,-99.99,,,-99.99,,2013-02-25 18:41:00,
2013-02-25 12:51:00,62.0,59.0,29.72,East,100,23.0,28.0,92,-99.99,,,-99.99,,2013-02-25 18:51:00,
2013-02-25 13:00:00,62.0,59.0,29.69,East,90,20.0,21.0,92,-99.99,,,-99.99,,2013-02-25 19:00:00,
2013-02-25 13:21:00,62.0,59.0,29.69,East,90,20.0,21.0,92,-99.99,,,-99.99,,2013-02-25 19:21:00,
2013-02-25 13:31:00,62.0,59.0,29.69,East,90,20.0,21.0,92,-99.99,,,-99.99,,2013-02-25 19:31:00,
2013-02-25 13:41:00,62.0,59.0,29.69,East,90,20.0,21.0,92,-99.99,,,-99.99,,2013-02-25 19:41:00,
2013-02-25 13:52:00,62.0,59.0,29.69,East,90,20.0,21.0,92,-99.99,,,-99.99,,2013-02-25 19:52:00,
2013-02-25 14:00:00,62.0,60.0,29.65,East,100,28.0,33.0,94,-99.99,,,-99.99,,2013-02-25 20:00:00,
2013-02-25 14:21:00,62.0,60.0,29.65,East,100,28.0,33.0,94,-99.99,,,-99.99,,2013-02-25 20:21:00,
2013-02-25 14:31:00,62.0,60.0,29.65,East,100,28.0,33.0,94,-99.99,,,-99.99,,2013-02-25 20:31:00,
2013-02-25 14:41:00,62.0,60.0,29.65,East,100,28.0,33.0,94,-99.99,,,-99.99,,2013-02-25 20:41:00,
2013-02-25 14:52:00,62.0,60.0,29.65,East,100,28.0,33.0,94,-99.99,,,-99.99,,2013-02-25 20:52:00,
2013-02-25 15:00:00,63.0,62.0,29.62,East,100,24.0,29.0,95,-99.99,,,-99.99,,2013-02-25 21:00:00,
2013-02-25 15:21:00,63.0,62.0,29.62,East,100,24.0,29.0,95,-99.99,,,-99.99,,2013-02-25 21:21:00,
2013-02-25 15:31:00,63.0,62.0,29.62,East,100,24.0,29.0,95,-99.99,,,-99.99,,2013-02-25 21:31:00,
2013-02-25 15:41:00,63.0,62.0,29.62,East,100,24.0,29.0,95,-99.99,,,-99.99,,2013-02-25 21:41:00,
2013-02-25 15:51:00,63.0,62.0,29.62,East,100,24.0,29.0,95,-99.99,,,-99.99,,2013-02-25 21:51:00,
2013-02-25 16:00:00,64.0,62.0,29.60,East,100,25.0,28.0,94,-99.99,,,-99.99,,2013-02-25 22:00:00,
2013-02-25 16:21:00,64.0,62.0,29.60,East,100,25.0,28.0,94,-99.99,,,-99.99,,2013-02-25 22:21:00,
2013-02-25 16:31:00,64.0,62.0,29.60,East,100,25.0,28.0,94,-99.99,,,-99.99,,2013-02-25 22:31:00,
2013-02-25 16:41:00,64.0,62.0,29.60,East,100,25.0,28.0,94,-99.99,,,-99.99,,2013-02-25 22:41:00,
2013-02-25 16:51:00,64.0,62.0,29.60,East,100,25.0,28.0,94,-99.99,,,-99.99,,2013-02-25 22:51:00,
2013-02-25 17:00:00,64.0,64.0,29.59,ESE,110,21.0,23.0,100,-99.99,,,-99.99,,2013-02-25 23:00:00,
2013-02-25 17:21:00,64.0,64.0,29.59,ESE,110,21.0,23.0,100,-99.99,,,-99.99,,2013-02-25 23:21:00,
2013-02-25 17:31:00,64.0,64.0,29.59,ESE,110,21.0,23.0,100,-99.99,,,-99.99,,2013-02-25 23:31:00,
2013-02-25 17:41:00,64.0,64.0,29.59,ESE,110,21.0,23.0,100,-99.99,,,-99.99,,2013-02-25 23:41:00,
2013-02-25 17:51:00,64.0,64.0,29.59,ESE,110,21.0,23.0,100,-99.99,,,-99.99,,2013-02-25 23:51:00,
2013-02-25 18:00:00,64.0,64.0,29.53,ESE,110,24.0,26.0,100,-99.99,,,-99.99,,2013-02-26 00:00:00,
2013-02-25 18:21:00,64.0,64.0,29.53,ESE,110,24.0,26.0,100,-99.99,,,-99.99,,2013-02-26 00:21:00,
2013-02-25 18:31:00,64.0,64.0,29.53,ESE,110,24.0,26.0,100,-99.99,,,-99.99,,2013-02-26 00:31:00,
2013-02-25 18:41:00,64.0,64.0,29.53,ESE,110,24.0,26.0,100,-99.99,,,-99.99,,2013-02-26 00:41:00,
2013-02-25 18:51:00,64.0,64.0,29.53,ESE,110,24.0,26.0,100,-99.99,,,-99.99,,2013-02-26 00:51:00,
2013-02-25 19:00:00,64.0,64.0,29.52,SE,130,31.0,36.0,99,-99.99,,,-99.99,,2013-02-26 01:00:00,
2013-02-25 19:21:00,64.0,64.0,29.52,SE,130,31.0,36.0,99,-99.99,,,-99.99,,2013-02-26 01:21:00,
2013-02-25 19:31:00,64.0,64.0,29.52,SE,130,31.0,36.0,99,-99.99,,,-99.99,,2013-02-26 01:31:00,
2013-02-25 19:41:00,64.0,64.0,29.52,SE,130,31.0,36.0,99,-99.99,,,-99.99,,2013-02-26 01:41:00,
2013-02-25 19:51:00,64.0,64.0,29.52,SE,130,31.0,36.0,99,-99.99,,,-99.99,,2013-02-26 01:51:00,
2013-02-25 20:00:00,66.0,64.0,29.53,SSE,150,31.0,34.0,95,-99.99,,,-99.99,,2013-02-26 02:00:00,
2013-02-25 20:21:00,66.0,64.0,29.53,SSE,150,31.0,34.0,95,-99.99,,,-99.99,,2013-02-26 02:21:00,
2013-02-25 20:31:00,66.0,64.0,29.53,SSE,150,31.0,34.0,95,-99.99,,,-99.99,,2013-02-26 02:31:00,
2013-02-25 20:41:00,66.0,64.0,29.53,SSE,150,31.0,34.0,95,-99.99,,,-99.99,,2013-02-26 02:41:00,
2013-02-25 20:51:00,66.0,64.0,29.53,SSE,150,31.0,34.0,95,-99.99,,,-99.99,,2013-02-26 02:51:00,
2013-02-25 21:00:00,65.0,65.0,29.54,SSE,160,26.0,31.0,98,-99.99,,,-99.99,,2013-02-26 03:00:00,
2013-02-25 21:21:00,65.0,65.0,29.54,SSE,160,26.0,31.0,98,-99.99,,,-99.99,,2013-02-26 03:21:00,
2013-02-25 21:31:00,65.0,65.0,29.54,SSE,160,26.0,31.0,98,-99.99,,,-99.99,,2013-02-26 03:31:00,
2013-02-25 21:41:00,65.0,65.0,29.54,SSE,160,26.0,31.0,98,-99.99,,,-99.99,,2013-02-26 03:41:00,
2013-02-25 21:51:00,65.0,65.0,29.54,SSE,160,26.0,31.0,98,-99.99,,,-99.99,,2013-02-26 03:51:00,
2013-02-25 22:00:00,65.0,65.0,29.52,SSE,160,29.0,33.0,98,-99.99,,,-99.99,,2013-02-26 04:00:00,
2013-02-25 22:21:00,65.0,65.0,29.52,SSE,160,29.0,33.0,98,-99.99,,,-99.99,,2013-02-26 04:21:00,
2013-02-25 22:31:00,65.0,65.0,29.52,SSE,160,29.0,33.0,98,-99.99,,,-99.99,,2013-02-26 04:31:00,
2013-02-25 22:42:00,65.0,65.0,29.52,SSE,160,29.0,33.0,98,-99.99,,,-99.99,,2013-02-26 04:42:00,
2013-02-25 22:51:00,65.0,65.0,29.52,SSE,160,29.0,33.0,98,-99.99,,,-99.99,,2013-02-26 04:51:00,
2013-02-25 23:00:00,65.0,65.0,29.54,SSW,210,10.0,16.0,100,-99.99,,,-99.99,,2013-02-26 05:00:00,
2013-02-25 23:21:00,65.0,65.0,29.54,SSW,210,10.0,16.0,100,-99.99,,,-99.99,,2013-02-26 05:21:00,
2013-02-25 23:31:00,65.0,65.0,29.54,SSW,210,10.0,16.0,100,-99.99,,,-99.99,,2013-02-26 05:31:00,
2013-02-25 23:42:00,65.0,65.0,29.54,SSW,210,10.0,16.0,100,-99.99,,,-99.99,,2013-02-26 05:42:00,
2013-02-25 23:52:00,65.0,65.0,29.54,SSW,210,10.0,16.0,100,-99.99,,,-99.99,,2013-02-26 05:52:00,